Total_Precipitation_Accumulation
0.08 0.07 0.10 0.13 0.12 0.16 0.19 0.22 0.35 0.29 0.30 0.38 0.40 0.43 0.41 0.34 0.29 0.25 0.21 0.19 0.19 0.22 0.25 0.25 0.25 0.26 0.26 0.29 0.33 0.37 0.43 0.53 0.59 0.53 0.48 0.43 0.35 0.29 0.28 0.27 0.25 0.29 0.37 0.44
0.07 0.12 0.15 0.15 0.15 0.14 0.13 0.13 0.18 0.21 0.25 0.22 0.22 0.27 0.31 0.28 0.26 0.24 0.23 0.20 0.17 0.17 0.17 0.20 0.21 0.20 0.21 0.23 0.25 0.27 0.32 0.38 0.45 0.47 0.44 0.40 0.33 0.28 0.26 0.24 0.25 0.30 0.36 0.40
0.07 0.12 0.16 0.25 0.20 0.14 0.10 0.08 0.13 0.26 0.30 0.21 0.22 0.26 0.28 0.23 0.19 0.18 0.15 0.12 0.10 0.12 0.12 0.11 0.10 0.12 0.17 0.19 0.21 0.28 0.31 0.34 0.40 0.47 0.46 0.38 0.27 0.26 0.28 0.29 0.32 0.38 0.38 0.37
0.11 0.14 0.26 0.22 0.10 0.07 0.08 0.06 0.05 0.14 0.16 0.15 0.17 0.15 0.13 0.10 0.09 0.08 0.06 0.05 0.04 0.04 0.05 0.05 0.05 0.09 0.14 0.18 0.26 0.31 0.35 0.39 0.44 0.47 0.48 0.44 0.38 0.37 0.41 0.44 0.45 0.48 0.45 0.41
0.10 0.16 0.18 0.11 0.09 0.08 0.09 0.09 0.04 0.06 0.09 0.08 0.06 0.07 0.09 0.05 0.03 0.01 0.01 0.01 0.01 0.02 0.03 0.04 0.07 0.12 0.19 0.28 0.36 0.40 0.42 0.43 0.46 0.52 0.59 0.60 0.54 0.50 0.51 0.53 0.50 0.51 0.51 0.48
0.10 0.22 0.21 0.12 0.10 0.08 0.08 0.16 0.08 0.06 0.06 0.05 0.04 0.11 0.14 0.04 0.00 0.00 0.00 0.01 0.02 0.03 0.05 0.09 0.12 0.16 0.25 0.35 0.43 0.48 0.47 0.45 0.48 0.54 0.62 0.68 0.69 0.64 0.59 0.62 0.56 0.52 0.49 0.51
0.13 0.19 0.14 0.11 0.08 0.08 0.17 0.22 0.07 0.04 0.03 0.03 0.05 0.09 0.07 0.02 0.00 0.00 0.01 0.01 0.02 0.06 0.09 0.11 0.13 0.18 0.29 0.39 0.46 0.46 0.44 0.47 0.55 0.62 0.68 0.73 0.79 0.80 0.77 0.71 0.66 0.63 0.58 0.60
0.19 0.24 0.23 0.14 0.08 0.07 0.10 0.09 0.07 0.04 0.03 0.03 0.02 0.02 0.01 0.00 0.01 0.01 0.01 0.02 0.04 0.09 0.13 0.13 0.14 0.22 0.32 0.38 0.41 0.45 0.49 0.55 0.62 0.70 0.67 0.71 0.94 0.99 1.02 0.97 0.83 0.78 0.75 0.73
0.32 0.31 0.21 0.17 0.13 0.13 0.12 0.08 0.06 0.05 0.04 0.03 0.03 0.02 0.01 0.01 0.01 0.01 0.01 0.03 0.06 0.11 0.15 0.19 0.25 0.32 0.40 0.38 0.42 0.51 0.60 0.66 0.66 0.67 0.75 0.85 0.95 0.99 1.00 0.99 0.93 0.84 0.83 0.80
0.27 0.28 0.26 0.21 0.14 0.10 0.08 0.06 0.04 0.03 0.02 0.02 0.02 0.02 0.02 0.02 0.02 0.02 0.03 0.06 0.10 0.16 0.25 0.33 0.41 0.44 0.44 0.45 0.52 0.64 0.72 0.78 0.79 0.79 0.77 0.82 0.95 0.97 0.96 0.91 0.89 0.88 0.87 0.84
0.23 0.22 0.26 0.25 0.15 0.07 0.04 0.02 0.02 0.02 0.02 0.02 0.02 0.02 0.02 0.02 0.03 0.04 0.05 0.08 0.13 0.22 0.32 0.36 0.43 0.53 0.55 0.63 0.75 0.83 0.81 0.78 0.80 0.85 0.92 0.96 0.96 0.97 0.94 0.93 0.81 0.79 0.81 0.83
0.20 0.17 0.19 0.18 0.12 0.07 0.05 0.04 0.03 0.02 0.02 0.03 0.03 0.03 0.03 0.03 0.03 0.05 0.07 0.12 0.18 0.25 0.33 0.39 0.48 0.57 0.62 0.72 0.84 0.96 0.95 0.86 0.86 0.89 0.92 0.96 0.97 0.88 0.76 0.68 0.58 0.56 0.59 0.60
0.13 0.12 0.10 0.10 0.09 0.07 0.05 0.04 0.04 0.03 0.04 0.04 0.04 0.04 0.04 0.04 0.05 0.06 0.09 0.13 0.19 0.25 0.31 0.38 0.47 0.55 0.64 0.73 0.81 0.90 0.91 0.88 0.86 0.84 0.86 0.90 0.93 0.93 0.90 0.74 0.58 0.47 0.44 0.43
0.08 0.08 0.06 0.05 0.05 0.05 0.05 0.05 0.04 0.05 0.05 0.06 0.06 0.06 0.06 0.07 0.08 0.10 0.13 0.16 0.20 0.24 0.29 0.38 0.50 0.57 0.64 0.72 0.81 0.85 0.85 0.82 0.81 0.81 0.79 0.80 0.82 0.85 0.90 0.86 0.76 0.64 0.50 0.43
0.06 0.06 0.05 0.04 0.04 0.05 0.06 0.06 0.08 0.08 0.09 0.08 0.08 0.09 0.10 0.13 0.15 0.16 0.17 0.20 0.24 0.28 0.31 0.42 0.56 0.62 0.67 0.77 0.82 0.82 0.83 0.79 0.73 0.73 0.70 0.74 0.77 0.77 0.79 0.84 0.82 0.75 0.62 0.55
0.12 0.11 0.10 0.09 0.09 0.09 0.10 0.10 0.11 0.12 0.11 0.10 0.10 0.11 0.12 0.14 0.16 0.18 0.21 0.25 0.34 0.37 0.40 0.51 0.60 0.65 0.77 0.84 0.85 0.83 0.77 0.71 0.72 0.70 0.68 0.71 0.76 0.78 0.79 0.83 0.84 0.79 0.67 0.58
0.20 0.21 0.21 0.18 0.16 0.14 0.13 0.14 0.15 0.15 0.14 0.13 0.12 0.11 0.12 0.16 0.21 0.24 0.25 0.28 0.34 0.37 0.45 0.60 0.66 0.70 0.83 0.93 0.92 0.87 0.77 0.65 0.67 0.70 0.67 0.68 0.75 0.77 0.75 0.76 0.77 0.72 0.60 0.50
0.25 0.26 0.26 0.24 0.22 0.20 0.19 0.18 0.19 0.19 0.19 0.17 0.15 0.15 0.17 0.22 0.28 0.31 0.32 0.35 0.38 0.38 0.43 0.56 0.66 0.72 0.78 0.95 1.01 0.92 0.80 0.70 0.64 0.65 0.66 0.64 0.67 0.74 0.73 0.71 0.71 0.67 0.58 0.51
0.22 0.24 0.26 0.27 0.27 0.28 0.29 0.28 0.27 0.25 0.23 0.22 0.22 0.22 0.24 0.27 0.32 0.34 0.36 0.42 0.50 0.54 0.52 0.55 0.68 0.74 0.76 0.89 1.03 0.96 0.81 0.72 0.63 0.60 0.64 0.64 0.65 0.68 0.65 0.63 0.66 0.64 0.55 0.52
0.28 0.30 0.33 0.36 0.37 0.38 0.38 0.37 0.36 0.34 0.32 0.31 0.31 0.30 0.31 0.32 0.36 0.39 0.42 0.46 0.52 0.63 0.66 0.67 0.62 0.64 0.72 0.83 0.94 0.90 0.82 0.74 0.65 0.59 0.62 0.67 0.67 0.63 0.56 0.53 0.57 0.55 0.49 0.45
0.36 0.39 0.42 0.44 0.43 0.42 0.42 0.41 0.40 0.38 0.35 0.35 0.36 0.37 0.38 0.37 0.38 0.45 0.53 0.55 0.52 0.57 0.61 0.65 0.60 0.56 0.58 0.75 0.87 0.82 0.78 0.76 0.69 0.60 0.63 0.68 0.65 0.57 0.49 0.47 0.48 0.45 0.44 0.42
0.36 0.38 0.39 0.38 0.37 0.34 0.31 0.31 0.33 0.33 0.32 0.32 0.34 0.37 0.42 0.44 0.46 0.49 0.49 0.56 0.57 0.60 0.58 0.57 0.55 0.53 0.54 0.62 0.69 0.75 0.73 0.74 0.69 0.61 0.58 0.60 0.60 0.53 0.44 0.43 0.44 0.40 0.37 0.39
0.23 0.23 0.23 0.22 0.21 0.19 0.16 0.16 0.19 0.23 0.26 0.29 0.33 0.41 0.50 0.54 0.56 0.62 0.57 0.48 0.51 0.53 0.52 0.50 0.48 0.46 0.45 0.46 0.53 0.59 0.61 0.66 0.65 0.58 0.53 0.49 0.49 0.43 0.40 0.39 0.40 0.36 0.34 0.33
0.07 0.07 0.07 0.08 0.10 0.12 0.13 0.14 0.16 0.18 0.21 0.24 0.25 0.33 0.50 0.60 0.56 0.50 0.50 0.48 0.49 0.45 0.44 0.41 0.37 0.34 0.34 0.35 0.45 0.52 0.54 0.59 0.60 0.58 0.52 0.46 0.43 0.39 0.39 0.39 0.37 0.33 0.32 0.29
0.03 0.03 0.04 0.08 0.13 0.17 0.19 0.20 0.20 0.21 0.25 0.28 0.26 0.30 0.44 0.55 0.59 0.50 0.43 0.42 0.45 0.38 0.37 0.38 0.35 0.34 0.35 0.38 0.45 0.50 0.52 0.54 0.56 0.58 0.53 0.46 0.41 0.39 0.38 0.38 0.37 0.35 0.32 0.27
0.05 0.07 0.09 0.13 0.19 0.26 0.29 0.33 0.37 0.39 0.48 0.52 0.46 0.44 0.49 0.50 0.50 0.47 0.43 0.39 0.39 0.35 0.33 0.35 0.35 0.34 0.35 0.40 0.46 0.49 0.52 0.53 0.53 0.54 0.51 0.48 0.44 0.41 0.41 0.39 0.34 0.30 0.24 0.21
0.09 0.13 0.18 0.23 0.26 0.32 0.40 0.47 0.55 0.63 0.72 0.80 0.81 0.73 0.66 0.61 0.56 0.50 0.44 0.40 0.37 0.33 0.33 0.34 0.37 0.36 0.36 0.39 0.43 0.50 0.54 0.54 0.49 0.47 0.47 0.48 0.48 0.44 0.39 0.35 0.32 0.28 0.25 0.23